This is the latest recevied weather packets stored in our database for station/object N5LSN. If no packets are shown the sender has not sent any weather packets the latest 10 day(s).
| Time | Temp. | Humidity | Pressure | Rain* | Wind** | Luminosity | Snow |
|---|---|---|---|---|---|---|---|
| 1777474245 | 17.22° C | 87% | 1017.4 hPa | 0 mm | - | 340 W/m² | - |
| 1777473942 | 17.22° C | 88% | 1017.3 hPa | 0 mm | - | 318 W/m² | - |
| 1777473640 | 17.22° C | 88% | 1017.4 hPa | 0 mm | - | 326 W/m² | - |
| 1777473336 | 16.67° C | 89% | 1017.3 hPa | 0 mm | - | 272 W/m² | - |
| 1777473032 | 16.67° C | 90% | 1016.8 hPa | 0 mm | - | 250 W/m² | - |
| 1777472728 | 16.11° C | 89% | 1017 hPa | 0 mm | - | 163 W/m² | - |
| 1777472426 | 16.67° C | 89% | 1017.1 hPa | 0 mm | - | 160 W/m² | - |
| 1777472123 | 16.11° C | 88% | 1016.9 hPa | 0 mm | - | 126 W/m² | - |
| 1777471823 | 16.11° C | 88% | 1016.8 hPa | 0 mm | - | 141 W/m² | - |
| 1777471520 | 16.11° C | 88% | 1017 hPa | 0 mm | - | 138 W/m² | - |
| 1777471216 | 16.11° C | 88% | 1017 hPa | 0 mm | - | 155 W/m² | - |
| 1777470913 | 16.11° C | 88% | 1016.9 hPa | 0 mm | - | 158 W/m² | - |
| 1777470611 | 16.11° C | 88% | 1017.1 hPa | 0 mm | - | 193 W/m² | - |
| 1777470306 | 16.11° C | 89% | 1016.8 hPa | 0 mm | - | 174 W/m² | - |
| 1777470003 | 16.11° C | 88% | 1016.8 hPa | 0 mm | - | 148 W/m² | - |
| 1777469698 | 16.11° C | 89% | 1016.8 hPa | 0 mm | - | 142 W/m² | - |
| 1777469394 | 16.11° C | 89% | 1016.8 hPa | 0 mm | - | 129 W/m² | - |
| 1777469089 | 16.11° C | 90% | 1017.1 hPa | 0 mm | - | 133 W/m² | - |
| 1777468784 | 16.11° C | 89% | 1016.9 hPa | 0 mm | - | 119 W/m² | - |
| 1777468481 | 16.11° C | 89% | 1016.7 hPa | 0 mm | - | 132 W/m² | - |
| 1777468178 | 16.11° C | 90% | 1016.4 hPa | 0 mm | - | 108 W/m² | - |
| 1777467874 | 16.11° C | 91% | 1016.4 hPa | 0 mm | - | 94 W/m² | - |
| 1777467569 | 16.11° C | 90% | 1016.5 hPa | 0 mm | - | 68 W/m² | - |
| 1777467265 | 16.11° C | 90% | 1016.3 hPa | 0 mm | - | 82 W/m² | - |
| 1777466961 | 16.11° C | 90% | 1016.2 hPa | 0 mm | - | 85 W/m² | - |
* Rain latest hour (hover to see other rain measurements)
** Current wind speed in m/s (hover to see current wind gust speed)